Regional Weather Roundup
Issued by NWS

Home | Current Version | Previous Version | Graphics & Text | Print | Product List | Glossary On
Versions: 1 2 3 4 5 6 7 8 9 10 11 12 13 14 15 16 17 18 19 20 21 22 23 24 25 26 27 28 29 30 31 32 33 34 35 36 37 38 39 40 41 42 43 44 45 46 47 48 49 50
000
ASUS43 KDMX 241706
RWRIA

WEATHER ROUNDUP FOR IOWA
NATIONAL WEATHER SERVICE DES MOINES IA
1200 PM CDT SUN SEP 24 2017

NOTE: "FAIR" INDICATES FEW OR NO CLOUDS BELOW 12,000 FEET WITH NO
SIGNIFICANT WEATHER AND/OR OBSTRUCTIONS TO VISIBILITY.

* - THESE STATIONS ARE NOT NWS STATIONS...THUS NOT UNDER NWS
QUALITY CONTROL.  THEY ALSO DO NOT REPORT WEATHER SUCH
AS PRECIPITATION OR FOG.

IAZ001>003-012>014-020>022-031>034-043>046-241800-
   NORTHWEST IOWA

CITY           SKY/WX    TMP DP  RH WIND       PRES   REMARKS
CARROLL *      SUNNY     88  64  45 S13G24    29.94S HX  89
CHEROKEE *     MOSUNNY   83  65  53 SW20G25   29.91S HX  85
DENISON *      SUNNY     84  64  51 S10G22    29.95R HX  86
LE MARS *      MOSUNNY   82  66  57 S20G29    29.88S HX  85
ORANGE CITY *  MOSUNNY   84  66  54 S23G30    29.90S HX  86
SHELDON *      SUNNY     82  63  51 S17G31    29.89S HX  83
SIOUX CITY     PTSUNNY   84  67  56 S14G28    29.89S HX  86
SPENCER        MOSUNNY   86  63  45 S18G26    29.92F HX  87
STORM LAKE *   SUNNY     86  63  45 SW17G28   29.93S HX  87
$$

IAZ055>058-069>071-079>083-090>094-241800-
   SOUTHWEST IOWA

CITY           SKY/WX    TMP DP  RH WIND       PRES   REMARKS
ATLANTIC *     SUNNY     86  66  51 S15       29.94S HX  88
AUDUBON *      SUNNY     86  66  51 S13       29.96S HX  88
CLARINDA *     SUNNY     88  68  51 S14       29.98S HX  91
COUNCIL BLFS * MOSUNNY   81  68  65 S12G17    29.94R HX  83
CRESTON *      SUNNY     86  64  48 S15G23    29.99S HX  87
HARLAN  *      MOSUNNY   86  66  51 S14G20    29.97S HX  88
LAMONI         SUNNY     85  67  54 S8G17     29.99F HX  87
RED OAK *      SUNNY     86  66  51 S14G21    29.95S HX  88
SHENANDOAH *   MOSUNNY   88  66  48 S17       29.95S HX  90
$$

IAZ047>049-059>061-072>074-084-241800-
   CENTRAL IOWA

CITY           SKY/WX    TMP DP  RH WIND       PRES   REMARKS
AMES           SUNNY     87  66  49 SW10      29.97S HX  89
ANKENY *       SUNNY     86  66  51 S10       29.98S HX  88
BOONE *        SUNNY     88  63  42 SW13G20   29.96F HX  88
CHARITON *     SUNNY     86  68  54 SW12      29.99F HX  89
DES MOINES     MOSUNNY   87  64  46 S12       29.96F HX  88
GRINNELL*      SUNNY     85  65  51 S9        30.01F HX  86
KNOXVILLE *    SUNNY     86  64  48 S14       29.98F HX  87
MARSHALLTOWN   MOSUNNY   85  66  53 SE7       29.98F HX  87
NEWTON *       SUNNY     86  66  51 VRB7G16   29.99S HX  88
PELLA *        SUNNY     88  64  45 SW10      30.00F HX  89
PERRY *          N/A     90  60  36 S15       29.96S HX  89
$$

IAZ004>006-015-016-023>025-035-036-241800-
   NORTH CENTRAL IOWA

CITY           SKY/WX    TMP DP  RH WIND       PRES   REMARKS
ALGONA *       MOSUNNY   88  64  45 S14       29.94F HX  89
CLARION *      SUNNY     88  64  45 S14G22    29.96F HX  89
ESTHERVILLE    SUNNY     83  65  54 S16G24    29.92F HX  85
FORT DODGE *   SUNNY     87  64  46 S12G22    29.95F HX  88
MASON CITY     SUNNY     86  63  45 S15G25    29.98F HX  87
FOREST CITY *    N/A     84  63  48 S13G22    29.96F HX  85
WEBSTER CITY * SUNNY     88  63  42 S14G24    29.94F HX  88
IOWA FALLS *     N/A     86  65  48 S9        29.99F HX  87
$$

IAZ007>011-017>019-026>030-037>042-050>054-066-241800-
   NORTHEAST IOWA

CITY           SKY/WX    TMP DP  RH WIND       PRES   REMARKS
CEDAR RAPIDS   SUNNY     86  64  47 S10       30.01F HX  87
CHARLES CITY * SUNNY     86  63  45 S8G15     30.00S HX  87
CLINTON *      SUNNY    N/A N/A N/A S10G18    30.05F
DECORAH *      SUNNY     84  64  51 S13G20    30.00F HX  86
DUBUQUE        SUNNY     82  65  56 S12       30.06F HX  84
MONTICELLO *   SUNNY     88  64  45 S9G17     30.02F HX  89
OELWEIN *      SUNNY     88  63  42 SE15G23   30.01S HX  88
WATERLOO       SUNNY     87  62  43 S14       29.98S HX  87
$$

IAZ064-065-067-068-078-241800-
   EAST CENTRAL IOWA

CITY           SKY/WX    TMP DP  RH WIND       PRES   REMARKS
DAVENPORT      SUNNY     85  65  51 SE9       30.06F HX  86
IOWA CITY      SUNNY     87  66  49 SE10      30.03F HX  89
MUSCATINE *    PTSUNNY   84  64  51 SE8       30.03S HX  86
QUAD CITIES    SUNNY     87  65  47 S7        30.03F HX  89
$$

IAZ062-063-075>077-085>089-095>099-241800-
   SOUTHEAST IOWA

CITY           SKY/WX    TMP DP  RH WIND       PRES   REMARKS
BURLINGTON     SUNNY     85  67  54 S6        30.03F HX  87
FAIRFIELD *    SUNNY     84  64  51 S8G15     30.01F HX  86
FORT MADISON * MOSUNNY   88  66  48 SW7       30.04F HX  90
KEOKUK *       SUNNY     88  66  48 S9G16     30.02F HX  90
OSKALOOSA *      N/A     87  65  47 S12       30.01S HX  89
OTTUMWA        SUNNY     86  66  51 S10       30.00F HX  88
WASHINGTON *   SUNNY     86  68  54 S6        30.03F HX  89
$$

ABBREVIATIONS USED IN REMARKS
   TC - TEMPERATURES IN CELSIUS
  WCI - WIND CHILL INDEX
   HX - HEAT INDEX
  VSB - VISIBILITY
$$





USA.gov is the U.S. government's official web portal to all federal, state and local government web resources and services.